Starlink 32784

operational
NORAD ID: 62607 Int'l Des: 2025-008 Owner: SPXS Country: US Constellation: starlink
LEOCIRCULAR

About Starlink 32784

Description loading...

Live Position

Loading 3D Globe...

Upcoming Passes

Altitude History

Altitude vs Time

uPlot chart will show altitude changes over time

Two-Line Element Set

1 62607U 25008W 25260.19954072 .00020152 00000-0 74052-3 0 9999
2 62607 42.9949 177.4976 0001515 283.1375 76.9307 15.27548179 39094
Epoch: Sep 17, 2025 • Age: 15 hours

Current Status

Altitude 486.7 km
Velocity 7.63 km/s
Sub-Earth Point 40.54°N, 0.52°E
Launch Date Jan 13, 2025
Age 0.6 years
Type internet

Technical Details

Classification Payload
Mass 730.00 kg
Dry Mass 700.00 kg
Total Mass 730.00 kg
Length 0.30 m
Diameter 4.10 m
Span 29.00 m
Shape Box + pan
Manufacturer SPXS
Bus Type Starlink V2M
Phase Status In Orbit
Owner/State SPXS/US

Large Constellations

Loading constellations...